Location: Unspecified
(0.0000°N, 0.0000°E)
Time: 21:38:21
(UTC+00:00)

Okean 3 - Pass Details

Date: 30 May 2019
Orbit: 578 x 600 km, 82.5° (Epoch: 25 June)

Event Time Altitude Azimuth Distance (km) Brightness Sun altitude
Exits shadow 20:25:25 11° 246° (WSW) 1,853 6.4 -33.9°
Maximum altitude 20:27:16 13° 273° (W) 1,672 6.4 -34.3°
Drops below altitude 10° 20:29:19 10° 303° (WNW) 1,882 6.8 -34.8°
Sets 20:32:31 0° 330° (NNW) 2,776 7.6 -35.5°
